When you browse on this site, cookies collect data to enhance your experience and personalize the content and advertising you see.
Visit our Privacy Policy to learn more. By continuing to use the site, you agree to this use of cookies and data.
  • In Czech Republic
  • List of Countries
  • For 7 days
  • Water Temperature
  • Satellite Maps
  • Weather Map
  • Weather Widgets
  • user-avatar
    Login

    Hourly Weather Vanadzor

    Today, 22 March, Friday

    Time Temperature Precipitation Wind Pressure Humidity
    00:00 +2°C° 0 mm 1 mps 636 mmHg 86%
    01:00 +1°C° 0 mm 1 mps 635 mmHg 87%
    02:00 +1°C° 0 mm 1 mps 635 mmHg 87%
    03:00 0°C° 0 mm 0 mps 635 mmHg 88%
    04:00 0°C° 0 mm 0 mps 635 mmHg 88%
    05:00 -1°C° 0 mm 0 mps 635 mmHg 88%
    06:00 -1°C° 0 mm 0 mps 635 mmHg 88%
    07:00 0°C° 0 mm 0 mps 636 mmHg 83%
    08:00 +2°C° 0 mm 0 mps 636 mmHg 79%
    09:00 +3°C° 0 mm 0 mps 636 mmHg 75%
    10:00 +5°C° 0.1 mm 1 mps 636 mmHg 70%
    11:00 +5°C° 0.1 mm 1 mps 636 mmHg 66%
    12:00 +6°C° 0.1 mm 1 mps 635 mmHg 62%
    13:00 +6°C° 0.1 mm 1 mps 635 mmHg 59%
    14:00 +6°C° 0.1 mm 1 mps 635 mmHg 57%
    15:00 +6°C° 0.1 mm 1 mps 634 mmHg 55%
    16:00 +5°C° 0 mm 1 mps 634 mmHg 58%
    17:00 +4°C° 0 mm 1 mps 634 mmHg 60%
    18:00 +3°C° 0 mm 1 mps 634 mmHg 63%
    19:00 +3°C° 0 mm 1 mps 634 mmHg 65%
    20:00 +2°C° 0 mm 1 mps 634 mmHg 68%
    21:00 +1°C° 0 mm 1 mps 635 mmHg 70%
    22:00 +1°C° 0 mm 1 mps 634 mmHg 70%
    23:00 +1°C° 0 mm 1 mps 634 mmHg 69%

    Tomorrow, 23 March, Saturday

    Time Temperature Precipitation Wind Pressure Humidity
    00:00 0°C° 0 mm 1 mps 634 mmHg 68%
    01:00 0°C° 0 mm 1 mps 634 mmHg 68%
    02:00 0°C° 0 mm 1 mps 634 mmHg 67%
    03:00 0°C° 0 mm 1 mps 634 mmHg 67%
    04:00 0°C° 0 mm 1 mps 634 mmHg 67%
    05:00 -1°C° 0 mm 1 mps 634 mmHg 68%
    06:00 -1°C° 0 mm 1 mps 633 mmHg 69%
    07:00 +1°C° 0 mm 1 mps 634 mmHg 66%
    08:00 +2°C° 0 mm 1 mps 634 mmHg 63%
    09:00 +2°C° 0 mm 2 mps 634 mmHg 59%
    10:00 +3°C° 0 mm 2 mps 634 mmHg 57%
    11:00 +4°C° 0 mm 2 mps 633 mmHg 54%
    12:00 +5°C° 0 mm 2 mps 633 mmHg 51%
    13:00 +5°C° 0 mm 2 mps 632 mmHg 52%
    14:00 +5°C° 0 mm 2 mps 632 mmHg 52%
    15:00 +4°C° 0 mm 3 mps 631 mmHg 53%
    16:00 +4°C° 0.1 mm 2 mps 631 mmHg 57%
    17:00 +3°C° 0.1 mm 2 mps 631 mmHg 60%
    18:00 +3°C° 0.1 mm 1 mps 631 mmHg 63%
    19:00 +3°C° 0 mm 1 mps 631 mmHg 67%
    20:00 +2°C° 0 mm 1 mps 631 mmHg 70%
    21:00 +1°C° 0 mm 1 mps 631 mmHg 73%
    22:00 +1°C° 0 mm 1 mps 631 mmHg 73%
    23:00 +1°C° 0 mm 1 mps 630 mmHg 72%

    Day after tomorrow, 24 March, Sunday

    Time Temperature Precipitation Wind Pressure Humidity
    00:00 +1°C° 0 mm 1 mps 630 mmHg 72%
    01:00 +1°C° 0 mm 1 mps 630 mmHg 73%
    02:00 +1°C° 0 mm 1 mps 630 mmHg 75%
    03:00 +1°C° 0 mm 1 mps 630 mmHg 76%
    04:00 +1°C° 0.4 mm 1 mps 629 mmHg 81%
    05:00 0°C° 0.4 mm 1 mps 629 mmHg 86%
    06:00 -2°C° 0.4 mm 2 mps 629 mmHg 91%
    07:00 -1°C° 0.6 mm 2 mps 629 mmHg 90%
    08:00 -1°C° 0.6 mm 2 mps 629 mmHg 89%
    09:00 -1°C° 0.6 mm 2 mps 628 mmHg 87%
    10:00 +1°C° 0.8 mm 2 mps 628 mmHg 88%
    11:00 +1°C° 0.8 mm 2 mps 628 mmHg 89%
    12:00 +1°C° 0.8 mm 2 mps 627 mmHg 90%
    13:00 +1°C° 1.1 mm 2 mps 627 mmHg 91%
    14:00 +1°C° 1.1 mm 2 mps 627 mmHg 92%
    15:00 +1°C° 1.1 mm 2 mps 626 mmHg 93%
    16:00 -1°C° 1.7 mm 2 mps 627 mmHg 94%
    17:00 -1°C° 1.7 mm 2 mps 627 mmHg 95%
    18:00 -2°C° 1.7 mm 2 mps 627 mmHg 96%
    19:00 -2°C° 0.8 mm 2 mps 628 mmHg 96%
    20:00 -3°C° 0.8 mm 2 mps 628 mmHg 96%
    21:00 -3°C° 0.8 mm 2 mps 628 mmHg 96%
    22:00 -3°C° 0.1 mm 2 mps 628 mmHg 96%
    23:00 -2°C° 0.1 mm 1 mps 628 mmHg 96%

    25 March, Monday

    Time Temperature Precipitation Wind Pressure Humidity
    00:00 -2°C° 0.1 mm 1 mps 628 mmHg 96%
    01:00 -2°C° 0.1 mm 1 mps 628 mmHg 95%
    02:00 -2°C° 0.1 mm 1 mps 628 mmHg 94%
    03:00 -2°C° 0.1 mm 1 mps 628 mmHg 94%
    04:00 -2°C° 0.1 mm 1 mps 629 mmHg 93%
    05:00 -2°C° 0.1 mm 1 mps 629 mmHg 92%
    06:00 -2°C° 0.1 mm 1 mps 629 mmHg 92%
    07:00 -1°C° 0 mm 1 mps 629 mmHg 91%
    08:00 0°C° 0 mm 1 mps 630 mmHg 89%
    09:00 +2°C° 0 mm 1 mps 630 mmHg 88%
    10:00 +2°C° 0 mm 1 mps 630 mmHg 90%
    11:00 +1°C° 0 mm 2 mps 629 mmHg 92%
    12:00 +2°C° 0 mm 2 mps 629 mmHg 93%
    13:00 +2°C° 0.1 mm 2 mps 629 mmHg 92%
    14:00 +3°C° 0.1 mm 2 mps 628 mmHg 91%
    15:00 +3°C° 0.1 mm 2 mps 628 mmHg 90%
    16:00 +2°C° 0.1 mm 2 mps 628 mmHg 90%
    17:00 +2°C° 0.1 mm 2 mps 628 mmHg 91%
    18:00 +1°C° 0.1 mm 2 mps 628 mmHg 92%
    19:00 +1°C° 0.1 mm 2 mps 628 mmHg 94%
    20:00 -1°C° 0.1 mm 2 mps 628 mmHg 95%
    21:00 -1°C° 0.1 mm 2 mps 629 mmHg 96%
    22:00 -1°C° 0.1 mm 2 mps 629 mmHg 96%
    23:00 -1°C° 0.1 mm 2 mps 628 mmHg 96%

    26 March, Tuesday

    Time Temperature Precipitation Wind Pressure Humidity
    00:00 -1°C° 0.1 mm 2 mps 628 mmHg 96%
    01:00 -1°C° 0.2 mm 2 mps 628 mmHg 96%
    02:00 -2°C° 0.2 mm 2 mps 628 mmHg 96%
    03:00 -2°C° 0.2 mm 2 mps 628 mmHg 96%
    04:00 -2°C° 0.2 mm 2 mps 629 mmHg 96%
    05:00 -2°C° 0.2 mm 2 mps 629 mmHg 96%
    06:00 0°C° 0.2 mm 1 mps 629 mmHg 96%
    07:00 -2°C° 0.2 mm 2 mps 629 mmHg 94%
    08:00 -1°C° 0.2 mm 2 mps 629 mmHg 92%
    09:00 -1°C° 0.2 mm 2 mps 630 mmHg 90%
    10:00 +1°C° 0.1 mm 2 mps 629 mmHg 89%
    11:00 +2°C° 0.1 mm 2 mps 629 mmHg 88%
    12:00 +2°C° 0.1 mm 2 mps 629 mmHg 87%
    13:00 +2°C° 0.1 mm 2 mps 629 mmHg 87%
    14:00 +3°C° 0.1 mm 2 mps 629 mmHg 87%
    15:00 +3°C° 0.1 mm 2 mps 629 mmHg 87%
    16:00 +2°C° 0.1 mm 2 mps 629 mmHg 89%
    17:00 +2°C° 0.1 mm 2 mps 629 mmHg 91%
    18:00 +2°C° 0.1 mm 1 mps 630 mmHg 92%
    19:00 +2°C° 0 mm 1 mps 630 mmHg 93%
    20:00 +1°C° 0 mm 1 mps 630 mmHg 94%
    21:00 0°C° 0 mm 0 mps 631 mmHg 95%
    22:00 -1°C° 0 mm 0 mps 631 mmHg 95%
    23:00 -1°C° 0 mm 0 mps 631 mmHg 94%

    27 March, Wednesday

    Time Temperature Precipitation Wind Pressure Humidity
    00:00 -1°C° 0 mm 0 mps 631 mmHg 93%
    01:00 -1°C° 0 mm 0 mps 632 mmHg 93%
    02:00 -2°C° 0 mm 0 mps 632 mmHg 93%
    03:00 -2°C° 0 mm 0 mps 632 mmHg 93%
    04:00 -1°C° 0 mm 1 mps 632 mmHg 91%
    05:00 -1°C° 0 mm 1 mps 632 mmHg 89%
    06:00 -1°C° 0 mm 1 mps 632 mmHg 87%
    07:00 +1°C° 0 mm 1 mps 633 mmHg 83%
    08:00 +2°C° 0 mm 1 mps 633 mmHg 79%
    09:00 +4°C° 0 mm 1 mps 633 mmHg 75%
    10:00 +5°C° 0 mm 1 mps 633 mmHg 75%
    11:00 +5°C° 0 mm 1 mps 633 mmHg 76%
    12:00 +6°C° 0 mm 1 mps 633 mmHg 76%
    13:00 +6°C° 0 mm 1 mps 633 mmHg 76%
    14:00 +7°C° 0 mm 1 mps 633 mmHg 76%
    15:00 +7°C° 0 mm 1 mps 633 mmHg 76%
    16:00 +6°C° 0 mm 1 mps 632 mmHg 77%
    17:00 +5°C° 0 mm 1 mps 632 mmHg 79%
    18:00 +4°C° 0 mm 1 mps 632 mmHg 81%
    19:00 +3°C° 0 mm 1 mps 632 mmHg 82%
    20:00 +3°C° 0 mm 1 mps 633 mmHg 82%
    21:00 +2°C° 0 mm 1 mps 633 mmHg 83%
    22:00 +2°C° 0.1 mm 1 mps 633 mmHg 83%
    23:00 +2°C° 0.1 mm 1 mps 633 mmHg 83%
    Show more